Easy to use

vPilot, FSInn, and Squawkbox

VATSIM has 3 different client software available to choose by the user. The 3 different softwares are relatively easy to use and enjoyable to the user's experience. The software's operating manual is available to download in case user has not been able to fully operate the software to get a real working pilot experience.

Radar that functions similarly to real ATC's radar

EuroScope & VRC

VATSIM uses an advanced radar client simulating real ATC experience in the real world. Although it said to be advanced, both radar clients are very easy to use. Another interesting point is VATSIM has the technology to break the limit between simulation and real life experience.

With VATSIM, you can learn more about aviation.
You can also discuss with other aviation geek.

Unforgettable Experience

Current Activity

No controllers and pilot currently online!

*This information may not be up to date.

METAR

Airport Name - Location (ICAO) METAR
Sultan Hasanuddin - Makassar (WAAA)METAR WAAA 210230Z 33006KT 290V350 9999 FEW019 31/25 Q1012|NOSIG=
I Gusti Ngurah Rai - Denpasar (WADD)METAR WADD 210200Z 27007KT 230V300 9999 SCT017 30/27 Q1011|NOSIG=
Juanda - Surabaya (WARR)METAR WARR 210230Z 27010KT 9999 FEW020 30/26 Q1012|NOSIG=
Soekarno Hatta - Jakarta (WIII)METAR WIII 210230Z 32009KT 6000 BKN020 28/24 Q1013 RERA|NOSIG=
Halim Perdana Kusuma - Jakarta (WIHH)METAR WIHH 210200Z 27003KT 5000 HZ SCT018 27/27 Q1013|NOSIG=
Kualanamu International Airport - Deli Serdang (WIMM)METAR WIMM 210230Z 23006KT 5000 HZ SCT017 28/25 Q1014|NOSIG=

*METAR resource from BMKG. This information may not be up to date.

VATSIM Indonesia vACC VATSIM South East Asia VATSIM Asia